BEIDOU-3 M24 (C46)

Last updated on Tue Sep 16 2025 00:03:24 GMT+0000 (Coordinated Universal Time)

1 44542U 19061A 25257.78444815 -.00000006 00000+0 00000+0 0 9993 2 44542 54.4063 192.0170 0008775 3.5286 356.4699 1.86229275 40664
UTC large
Height (km)
Speed (km/s)
/
Latitude / Longitude
Inclination (degrees)
Orbital Period (minutes)
Azimuth
Elevation
Range (km)
Doppler Factor

Next 0 passes for location: London (51.5072 / 0.1276)

Sorry there are no passes over London.